USA 255

Last updated on Nov. 9, 2019, 4:19 a.m. UTC

1 40101U 14043C   19310.88763966  .00000056  00000-0  00000+0 0  9995
2 40101   3.6108  74.5300 0013257 258.2546  97.8220  0.98722024  1468
UTC
Height (km)
Latitude
Longitude
Inclination
Orbital Period
UTC large
Height (km)
Speed (km/s)
/
Latitude / Longitude
Inclination (degrees)
Orbital Period (minutes)
Azimuth
Elevation
Range (km)
Doppler Factor
iOS Compass Heading
iOS Angle

Next 30 passes for location: Hong Kong

Rise time Rise Azimuth (degrees) Set time Set Azimuth (degrees) Duration Max altitude (degrees)

No matching passes for this satellites